Hourly Data Report for March 25, 2021

KUGAARUK CLIMATE
NUNAVUT
Current Station Operator: ECCC - MSC

68°32'15.060" N
89°47'47.020" W
15.80 m
2303094
71407
NBB

Download Data

Hourly Data (March 2021)
Hourly Data Report for March 25, 2021
TIME
LST
Temp Definition
°C
Dew Point Definition
°C
Rel Hum Definition
%
Precip. Amount Definition
mm

Wind Dir Definition
10's deg

Wind Spd Definition
km/h
Visibility Definition
km
Stn Press Definition
kPa
Hmdx Definition


Wind Chill Definition


Weather Definition


00:00 -30.4 -33.7 73 0.0 22 28   102.64   -46 LegendNANA
01:00 -30.5 -33.7 73 0.0 23 33   102.67   -47 LegendNANA
02:00 -29.2 -32.5 73 0.0 22 25   102.72   -43 LegendNANA
03:00 -29.4 -32.7 73 0.0 22 29   102.75   -45 LegendNANA
04:00 -30.0 -33.3 73 0.0 23 27   102.79   -45 LegendNANA
05:00 -29.8 -33.1 73 0.0 25 21   102.86   -43 LegendNANA
06:00 -27.8 -31.4 71 0.0 23 25   102.84   -42 LegendNANA
07:00 -26.8 -30.9 68 0.0 24 37   102.80   -43 LegendNANA
08:00 -25.9 -30.7 64 0.0 24 32   102.82   -41 LegendNANA
09:00 -25.1 -30.5 60 0.0 24 38   102.75   -41 LegendNANA
10:00 -24.0 -30.2 56 0.0 23 29   102.79   -38 LegendNANA
11:00 -23.5 -30.0 55 0.0 23 30   102.82   -37 LegendNANA
12:00 -22.9 -29.9 52 0.0 22 34   102.80   -37 LegendNANA
13:00 -22.8 -30.2 51 0.0 22 27   102.82   -36 LegendNANA
14:00 -22.3 -29.7 51 0.0 22 33   102.79   -36 LegendNANA
15:00 -21.7 -29.8 48 0.0 22 29   102.79   -35 LegendNANA
16:00 -22.9 -30.0 52 0.0 22 30   102.78   -36 LegendNANA
17:00 -22.7 -29.4 55 0.0 22 26   102.75   -35 LegendNANA
18:00 -22.7 -29.3 55 0.0 21 31   102.70   -36 LegendNANA
19:00 -23.0 -29.1 58 0.0 23 21   102.69   -35 LegendNANA
20:00 -22.8 -29.0 57 0.0 22 27   102.64   -36 LegendNANA
21:00 -22.6 -30.1 51 0.0 22 30   102.60   -36 LegendNANA
22:00 -23.0 -29.0 58 0.0 22 26   102.52   -36 LegendNANA
23:00 -22.6 -29.4 54 0.0 22 34   102.51   -37 LegendNANA

Notes on Data Quality.

Legend

  • E = Estimated
  • M = Missing
  • NA = Not Available*
  • [empty] = Indicates an unobserved value
Date modified: